Hourly Weather Kozyatniki

Today, 23 October, Friday

Time Temperature Precipitation Wind Pressure Humidity
00:00 +9°C° 0 mm 7 mps 739 mmHg 89%
01:00 +10°C° 0 mm 7 mps 740 mmHg 89%
02:00 +10°C° 0 mm 6 mps 740 mmHg 88%
03:00 +9°C° 0 mm 5 mps 740 mmHg 90%
04:00 +9°C° 0 mm 5 mps 740 mmHg 92%
05:00 +8°C° 0 mm 5 mps 740 mmHg 93%
06:00 +8°C° 0 mm 5 mps 740 mmHg 94%
07:00 +8°C° 0 mm 5 mps 740 mmHg 94%
08:00 +8°C° 0 mm 5 mps 740 mmHg 95%
09:00 +9°C° 0 mm 5 mps 740 mmHg 93%
10:00 +9°C° 0 mm 5 mps 740 mmHg 91%
11:00 +10°C° 0 mm 5 mps 739 mmHg 89%
12:00 +12°C° 0.2 mm 5 mps 739 mmHg 86%
13:00 +11°C° 0.2 mm 6 mps 738 mmHg 84%
14:00 +12°C° 0.2 mm 7 mps 738 mmHg 81%
15:00 +9°C° 0.1 mm 3 mps 739 mmHg 91%
16:00 +11°C° 0.1 mm 4 mps 738 mmHg 89%
17:00 +12°C° 0.1 mm 5 mps 738 mmHg 86%
18:00 +12°C° 0.1 mm 5 mps 738 mmHg 88%
19:00 +10°C° 0.1 mm 5 mps 738 mmHg 90%
20:00 +10°C° 0.1 mm 5 mps 738 mmHg 92%
21:00 +9°C° 0 mm 5 mps 738 mmHg 93%
22:00 +9°C° 0 mm 5 mps 739 mmHg 94%
23:00 +10°C° 0 mm 4 mps 739 mmHg 94%

Tomorrow, 24 October, Saturday

Time Temperature Precipitation Wind Pressure Humidity
00:00 +8°C° 0 mm 4 mps 739 mmHg 95%
01:00 +8°C° 0 mm 4 mps 739 mmHg 95%
02:00 +8°C° 0 mm 3 mps 739 mmHg 96%
03:00 +8°C° 0 mm 3 mps 739 mmHg 96%
04:00 +7°C° 0 mm 3 mps 739 mmHg 96%
05:00 +7°C° 0 mm 2 mps 739 mmHg 96%
06:00 +7°C° 0 mm 2 mps 739 mmHg 95%
07:00 +7°C° 0 mm 2 mps 740 mmHg 95%
08:00 +7°C° 0 mm 2 mps 740 mmHg 94%
09:00 +8°C° 0 mm 3 mps 740 mmHg 90%
10:00 +9°C° 0 mm 3 mps 740 mmHg 85%
11:00 +10°C° 0 mm 3 mps 740 mmHg 81%
12:00 +10°C° 0 mm 3 mps 740 mmHg 81%
13:00 +11°C° 0 mm 4 mps 740 mmHg 80%
14:00 +11°C° 0 mm 4 mps 740 mmHg 80%
15:00 +10°C° 0 mm 3 mps 740 mmHg 84%
16:00 +10°C° 0 mm 3 mps 740 mmHg 89%
17:00 +9°C° 0 mm 3 mps 739 mmHg 93%
18:00 +9°C° 0 mm 2 mps 740 mmHg 94%
19:00 +9°C° 0 mm 2 mps 740 mmHg 95%
20:00 +8°C° 0 mm 2 mps 740 mmHg 96%
21:00 +8°C° 0 mm 2 mps 740 mmHg 96%
22:00 +7°C° 0 mm 2 mps 740 mmHg 96%
23:00 +7°C° 0 mm 2 mps 740 mmHg 95%

Day after tomorrow, 25 October, Sunday

Time Temperature Precipitation Wind Pressure Humidity
00:00 +7°C° 0.1 mm 2 mps 740 mmHg 95%
01:00 +7°C° 0.1 mm 2 mps 741 mmHg 94%
02:00 +7°C° 0.1 mm 3 mps 741 mmHg 93%
03:00 +8°C° 0.1 mm 3 mps 741 mmHg 93%
04:00 +7°C° 0.1 mm 4 mps 741 mmHg 92%
05:00 +7°C° 0.1 mm 4 mps 741 mmHg 92%
06:00 +7°C° 0 mm 4 mps 742 mmHg 91%
07:00 +7°C° 0 mm 4 mps 742 mmHg 90%
08:00 +7°C° 0 mm 4 mps 742 mmHg 90%
09:00 +8°C° 0 mm 4 mps 743 mmHg 85%
10:00 +10°C° 0 mm 4 mps 744 mmHg 81%
11:00 +9°C° 0 mm 5 mps 744 mmHg 76%
12:00 +10°C° 0 mm 4 mps 745 mmHg 76%
13:00 +10°C° 0 mm 4 mps 745 mmHg 75%
14:00 +10°C° 0 mm 4 mps 746 mmHg 75%
15:00 +10°C° 0 mm 3 mps 746 mmHg 77%
16:00 +9°C° 0 mm 3 mps 746 mmHg 80%
17:00 +9°C° 0 mm 2 mps 746 mmHg 83%
18:00 +8°C° 0 mm 2 mps 747 mmHg 84%
19:00 +8°C° 0 mm 2 mps 747 mmHg 85%
20:00 +9°C° 0 mm 1 mps 748 mmHg 86%
21:00 +9°C° 0 mm 1 mps 748 mmHg 85%
22:00 +9°C° 0 mm 1 mps 748 mmHg 83%
23:00 +9°C° 0 mm 1 mps 748 mmHg 82%

, 26 October, Monday

Time Temperature Precipitation Wind Pressure Humidity
00:00 +9°C° 0 mm 1 mps 748 mmHg 81%
01:00 +9°C° 0 mm 1 mps 749 mmHg 81%
02:00 +9°C° 0 mm 1 mps 749 mmHg 81%
03:00 +9°C° 0 mm 1 mps 749 mmHg 81%
04:00 +9°C° 0 mm 1 mps 749 mmHg 82%
05:00 +8°C° 0 mm 2 mps 749 mmHg 82%
06:00 +8°C° 0 mm 2 mps 749 mmHg 81%
07:00 +8°C° 0 mm 2 mps 749 mmHg 81%
08:00 +8°C° 0 mm 2 mps 750 mmHg 81%
09:00 +8°C° 0 mm 2 mps 750 mmHg 78%
10:00 +9°C° 0 mm 3 mps 750 mmHg 75%
11:00 +9°C° 0 mm 3 mps 750 mmHg 72%
12:00 +9°C° 0 mm 3 mps 750 mmHg 72%
13:00 +9°C° 0 mm 3 mps 750 mmHg 72%
14:00 +9°C° 0 mm 3 mps 750 mmHg 72%
15:00 +9°C° 0 mm 3 mps 750 mmHg 75%
16:00 +9°C° 0 mm 3 mps 749 mmHg 77%
17:00 +8°C° 0 mm 3 mps 749 mmHg 79%
18:00 +8°C° 0 mm 3 mps 749 mmHg 81%
19:00 +8°C° 0 mm 3 mps 749 mmHg 83%
20:00 +7°C° 0 mm 3 mps 749 mmHg 85%
21:00 +7°C° 0 mm 3 mps 749 mmHg 85%
22:00 +7°C° 0 mm 4 mps 749 mmHg 84%
23:00 +7°C° 0 mm 4 mps 749 mmHg 84%

26 October, Monday

Time Temperature Precipitation Wind Pressure Humidity
00:00 +9°C° 0 mm 1 mps 748 mmHg 81%
01:00 +9°C° 0 mm 1 mps 749 mmHg 81%
02:00 +9°C° 0 mm 1 mps 749 mmHg 81%
03:00 +9°C° 0 mm 1 mps 749 mmHg 81%
04:00 +9°C° 0 mm 1 mps 749 mmHg 82%
05:00 +8°C° 0 mm 2 mps 749 mmHg 82%
06:00 +8°C° 0 mm 2 mps 749 mmHg 81%
07:00 +8°C° 0 mm 2 mps 749 mmHg 81%
08:00 +8°C° 0 mm 2 mps 750 mmHg 81%
09:00 +8°C° 0 mm 2 mps 750 mmHg 78%
10:00 +9°C° 0 mm 3 mps 750 mmHg 75%
11:00 +9°C° 0 mm 3 mps 750 mmHg 72%
12:00 +9°C° 0 mm 3 mps 750 mmHg 72%
13:00 +9°C° 0 mm 3 mps 750 mmHg 72%
14:00 +9°C° 0 mm 3 mps 750 mmHg 72%
15:00 +9°C° 0 mm 3 mps 750 mmHg 75%
16:00 +9°C° 0 mm 3 mps 749 mmHg 77%
17:00 +8°C° 0 mm 3 mps 749 mmHg 79%
18:00 +8°C° 0 mm 3 mps 749 mmHg 81%
19:00 +8°C° 0 mm 3 mps 749 mmHg 83%
20:00 +7°C° 0 mm 3 mps 749 mmHg 85%
21:00 +7°C° 0 mm 3 mps 749 mmHg 85%
22:00 +7°C° 0 mm 4 mps 749 mmHg 84%
23:00 +7°C° 0 mm 4 mps 749 mmHg 84%

27 October, Tuesday

Time Temperature Precipitation Wind Pressure Humidity
00:00 +6°C° 0 mm 4 mps 749 mmHg 86%
01:00 +5°C° 0 mm 4 mps 749 mmHg 89%
02:00 +4°C° 0 mm 4 mps 749 mmHg 91%
03:00 +4°C° 0 mm 4 mps 749 mmHg 91%
04:00 +4°C° 0 mm 4 mps 749 mmHg 90%
05:00 +4°C° 0 mm 4 mps 749 mmHg 90%
06:00 +5°C° 0 mm 4 mps 749 mmHg 88%
07:00 +5°C° 0 mm 4 mps 749 mmHg 87%
08:00 +5°C° 0 mm 5 mps 749 mmHg 85%
09:00 +6°C° 0 mm 4 mps 749 mmHg 82%
10:00 +7°C° 0 mm 4 mps 749 mmHg 80%
11:00 +8°C° 0 mm 4 mps 749 mmHg 77%
12:00 +8°C° 0 mm 4 mps 749 mmHg 78%
13:00 +8°C° 0 mm 4 mps 749 mmHg 79%
14:00 +7°C° 0 mm 4 mps 749 mmHg 79%
15:00 +7°C° 0.1 mm 4 mps 748 mmHg 81%
16:00 +7°C° 0.1 mm 4 mps 748 mmHg 82%
17:00 +7°C° 0.1 mm 4 mps 748 mmHg 84%
18:00 +7°C° 0 mm 4 mps 748 mmHg 83%
19:00 +7°C° 0 mm 4 mps 748 mmHg 82%
20:00 +7°C° 0 mm 4 mps 748 mmHg 81%
21:00 +7°C° 0 mm 4 mps 748 mmHg 80%
22:00 +7°C° 0 mm 4 mps 748 mmHg 79%
23:00 +7°C° 0 mm 4 mps 748 mmHg 78%

28 October, Wednesday

Time Temperature Precipitation Wind Pressure Humidity
00:00 +7°C° 0 mm 4 mps 748 mmHg 80%
01:00 +6°C° 0 mm 4 mps 748 mmHg 82%
02:00 +6°C° 0 mm 4 mps 747 mmHg 83%
03:00 +7°C° 0 mm 3 mps 747 mmHg 83%
04:00 +7°C° 0 mm 3 mps 747 mmHg 83%
05:00 +7°C° 0 mm 3 mps 747 mmHg 83%
06:00 +7°C° 0 mm 3 mps 747 mmHg 83%
07:00 +6°C° 0 mm 4 mps 747 mmHg 83%
08:00 +6°C° 0 mm 4 mps 747 mmHg 83%
09:00 +7°C° 0 mm 4 mps 747 mmHg 79%
10:00 +8°C° 0 mm 4 mps 747 mmHg 75%
11:00 +10°C° 0 mm 4 mps 747 mmHg 71%
12:00 +11°C° 0 mm 4 mps 747 mmHg 71%
13:00 +11°C° 0 mm 3 mps 747 mmHg 71%
14:00 +11°C° 0 mm 3 mps 747 mmHg 70%
15:00 +10°C° 0 mm 3 mps 747 mmHg 75%
16:00 +9°C° 0 mm 3 mps 747 mmHg 79%
17:00 +8°C° 0 mm 3 mps 747 mmHg 83%
18:00 +8°C° 0 mm 3 mps 747 mmHg 84%
19:00 +7°C° 0 mm 3 mps 747 mmHg 85%
20:00 +7°C° 0 mm 3 mps 747 mmHg 86%
21:00 +7°C° 0 mm 3 mps 747 mmHg 87%
22:00 +5°C° 0 mm 3 mps 747 mmHg 87%
23:00 +5°C° 0 mm 3 mps 747 mmHg 87%
Show more